PulseSat

PulseSat

GPS BIIR-4 (PRN 20)

Last updated on Dec. 18, 2018, 12:08 a.m. UTC

1 26360U 00025A   18351.03660428  .00000058  00000-0  00000+0 0  9993
2 26360  53.2641 132.0380 0043006 128.1066 228.6044  2.00563222136327
UTC
Height (km)
Latitude
Longitude
Inclination
Orbital Period

Next 30 passes for location: Hong Kong

Rise time Rise Azimuth (degrees) Set time Set Azimuth (degrees) Duration Max altitude (degrees)

No matching passes for this satellites

PulseSat

PulseSat is the new satellites software and hardware trackering solution by Pulsely.
Satellite Two Line Element Set source: US Air Force Space Command

Download PulseSat for iOS
© 2017 Pulsely Limited